Weather History for Petersburg, WV

Change the Weather History Date:

Tuesday, January 1, 2013

  Actual Average (KEKN) Record (KEKN)
Temperature  
Mean Temperature 41 °F 29 °F  
Max Temperature 45 °F 39 °F 70 °F (1930)
Min Temperature 36 °F 20 °F -11 °F (1968)
Degree Days  
Heating Degree Days 24 36  
Month to date heating degree days 36  
Since 1 July heating degree days 2327  
Cooling Degree Days 0 0  
Month to date cooling degree days 0  
Year to date cooling degree days 0  
Moisture  
Dew Point 28 °F    
Average Humidity 62    
Maximum Humidity 75    
Minimum Humidity 40    
Precipitation  
Precipitation 0.00 in 0.10 in 1.47 in (1919)
Month to date precipitation 0.10  
Year to date precipitation 0.10  
Snow  
Snow 0.00 in - - ()
Month to date snowfall  
Since 1 September snowfall  
Snow Depth -    
Sea Level Pressure  
Sea Level Pressure 29.98 in    
Wind  
Wind Speed 10 mph (West)    
Max Wind Speed 24 mph    
Max Gust Speed 33 mph    
Visibility 10 miles    
Events      
T = Trace of Precipitation, MM = Missing Value Source: NWS Daily Summary

Daily Weather History Graph

Daily Weather History Graph

Search for Another Location

Airport:

Trip Planner

Search our weather history database for the weather conditions in past years. The results will help you decide how hot, cold, wet, or windy it might be!

Date:

Astronomy

Jan. 01, 2013 Rise Set
Actual Time 7:35 AM EST 5:05 PM EST
Civil Twilight 7:05 AM EST 5:35 PM EST
Nautical Twilight 6:32 AM EST 6:08 PM EST
Astronomical Twilight 5:59 AM EST 6:40 PM EST
Moon 9:32 PM EST (1/1) 9:49 AM EST (1/1)
Length of Visible Light 10h 29m
Length of Day
9h 29m
Waning Gibbous, 83% of the Moon is Illuminated
Jan 1
Waning Gibbous
Jan 4
Last Quarter
Jan 11
New
Jan 18
First Quarter
Jan 26
Full

Hourly Weather History & Observations

Time (EST) Temp. Windchill Dew Point Humidity Pressure Visibility Wind Dir Wind Speed Gust Speed Precip Events Conditions
12:15 AM 41.4 °F 39.4 °F 22.5 °F 47% 30.01 in 10.0 mi SW 3.5 mph - N/A   Mostly Cloudy
12:35 AM 42.3 °F 38.6 °F 23.2 °F 47% 30.00 in 10.0 mi WNW 5.8 mph - N/A   Scattered Clouds
12:55 AM 42.6 °F 38.4 °F 23.0 °F 46% 30.00 in 10.0 mi West 6.9 mph - N/A   Clear
1:15 AM 43.3 °F 36.1 °F 20.7 °F 40% 30.00 in 10.0 mi West 15.0 mph 24.2 mph N/A   Scattered Clouds
1:35 AM 42.3 °F 37.9 °F 21.0 °F 43% 29.99 in 10.0 mi West 6.9 mph 26.5 mph N/A   Clear
1:55 AM 41.2 °F 34.1 °F 21.9 °F 46% 29.98 in 10.0 mi West 12.7 mph 26.5 mph N/A   Clear
2:15 AM 41.9 °F 32.1 °F 22.3 °F 46% 29.98 in 10.0 mi West 24.2 mph 33.4 mph N/A   Clear
2:35 AM 41.4 °F 31.6 °F 23.7 °F 50% 29.99 in 10.0 mi West 23.0 mph 31.1 mph N/A   Scattered Clouds
2:55 AM 40.5 °F 30.2 °F 25.2 °F 54% 29.99 in 10.0 mi West 24.2 mph 33.4 mph N/A   Clear
3:15 AM 40.5 °F 35.8 °F 25.3 °F 55% 30.00 in 10.0 mi South 6.9 mph 21.9 mph N/A   Scattered Clouds
3:35 AM 40.3 °F 33.0 °F 26.1 °F 57% 30.00 in 10.0 mi SW 12.7 mph 23.0 mph N/A   Scattered Clouds
3:55 AM 41.2 °F 34.5 °F 26.4 °F 56% 29.99 in 10.0 mi SW 11.5 mph 18.4 mph N/A   Mostly Cloudy
4:15 AM 40.6 °F 35.4 °F 27.1 °F 59% 29.99 in 10.0 mi SSE 8.1 mph 17.3 mph N/A   Scattered Clouds
4:35 AM 41.4 °F 32.7 °F 27.5 °F 58% 29.98 in 10.0 mi SW 18.4 mph 29.9 mph N/A   Scattered Clouds
4:55 AM 41.0 °F 38.0 °F 28.2 °F 60% 29.99 in 10.0 mi SSW 4.6 mph 20.7 mph N/A   Scattered Clouds
5:15 AM 41.0 °F 35.2 °F 28.4 °F 61% 29.98 in 10.0 mi SSE 9.2 mph - N/A   Mostly Cloudy
5:35 AM 41.2 °F 36.6 °F 28.2 °F 60% 29.97 in 10.0 mi SSE 6.9 mph - N/A   Scattered Clouds
6:15 AM 42.4 °F 35.0 °F 28.9 °F 59% 29.96 in 10.0 mi West 15.0 mph 25.3 mph N/A   Clear
6:35 AM 41.4 °F 36.8 °F 29.3 °F 62% 29.96 in 10.0 mi WSW 6.9 mph - N/A   Clear
6:55 AM 41.2 °F 35.5 °F 29.3 °F 63% 29.97 in 10.0 mi West 9.2 mph - N/A   Clear
7:15 AM 41.5 °F 33.5 °F 29.3 °F 62% 29.96 in 10.0 mi West 16.1 mph 20.7 mph N/A   Clear
7:35 AM 41.7 °F 33.4 °F 29.3 °F 61% 29.97 in 10.0 mi West 17.3 mph - N/A   Clear
7:55 AM 42.1 °F 33.3 °F 29.7 °F 61% 29.97 in 10.0 mi West 19.6 mph - N/A   Clear
8:15 AM 42.3 °F 33.6 °F 29.8 °F 61% 29.96 in 10.0 mi West 19.6 mph 23.0 mph N/A   Clear
8:35 AM 42.8 °F 34.5 °F 30.2 °F 61% 29.97 in 10.0 mi West 18.4 mph 25.3 mph N/A   Clear
8:55 AM 43.0 °F 34.5 °F 30.0 °F 60% 29.99 in 10.0 mi West 19.6 mph - N/A   Clear
9:15 AM 43.0 °F 34.8 °F 29.8 °F 60% 29.97 in 10.0 mi West 18.4 mph 24.2 mph N/A   Clear
9:35 AM 42.6 °F 34.9 °F 30.2 °F 61% 29.97 in 10.0 mi West 16.1 mph 21.9 mph N/A   Clear
10:15 AM 42.6 °F 35.9 °F 30.0 °F 61% 29.97 in 10.0 mi West 12.7 mph - N/A   Clear
10:35 AM 43.0 °F 37.2 °F 30.2 °F 61% 29.98 in 10.0 mi West 10.4 mph - N/A   Clear
10:55 AM 43.5 °F 36.7 °F 30.0 °F 59% 29.98 in 10.0 mi West 13.8 mph 17.3 mph N/A   Clear
11:15 AM 43.5 °F 37.9 °F 30.4 °F 60% 29.97 in 10.0 mi West 10.4 mph - N/A   Clear
11:35 AM 43.0 °F 36.8 °F 31.5 °F 64% 29.96 in 10.0 mi West 11.5 mph - N/A   Scattered Clouds
11:55 AM 43.9 °F 38.8 °F 30.0 °F 58% 29.96 in 10.0 mi West 9.2 mph 18.4 mph N/A   Scattered Clouds
12:15 PM 43.9 °F 38.3 °F 30.9 °F 60% 29.94 in 10.0 mi West 10.4 mph 16.1 mph N/A   Clear
12:35 PM 44.4 °F 39.0 °F 29.8 °F 57% 29.94 in 10.0 mi West 10.4 mph 19.6 mph N/A   Clear
12:55 PM 45.0 °F 41.2 °F 30.7 °F 57% 29.92 in 10.0 mi WSW 6.9 mph - N/A   Clear
1:15 PM 43.7 °F 38.1 °F 29.3 °F 57% 29.92 in 10.0 mi West 10.4 mph 16.1 mph N/A   Mostly Cloudy
1:35 PM 43.7 °F 38.1 °F 30.6 °F 60% 29.93 in 10.0 mi WNW 10.4 mph - N/A   Overcast
1:55 PM 42.3 °F 36.8 °F 30.0 °F 62% 29.93 in 10.0 mi West 9.2 mph - N/A   Overcast
2:15 PM 42.8 °F 37.0 °F 29.5 °F 59% 29.93 in 10.0 mi West 10.4 mph - N/A   Overcast
2:35 PM 41.9 °F 35.9 °F 29.3 °F 61% 29.93 in 10.0 mi West 10.4 mph 16.1 mph N/A   Overcast
2:55 PM 41.5 °F 35.0 °F 29.3 °F 62% 29.94 in 10.0 mi West 11.5 mph - N/A   Overcast
3:15 PM 41.2 °F 35.0 °F 29.7 °F 64% 29.93 in 10.0 mi West 10.4 mph - N/A   Overcast
3:35 PM 40.8 °F 33.7 °F 29.8 °F 65% 29.94 in 10.0 mi West 12.7 mph - N/A   Overcast
3:55 PM 40.5 °F 34.6 °F 30.6 °F 68% 29.95 in 10.0 mi WNW 9.2 mph - N/A   Overcast
4:15 PM 41.2 °F 36.0 °F 29.7 °F 64% 29.96 in 10.0 mi WNW 8.1 mph 16.1 mph N/A   Overcast
4:35 PM 41.5 °F 35.4 °F 29.3 °F 62% 29.95 in 10.0 mi WNW 10.4 mph 18.4 mph N/A   Overcast
4:55 PM 40.8 °F 34.1 °F 29.7 °F 64% 29.96 in 10.0 mi WNW 11.5 mph - N/A   Overcast
5:15 PM 39.6 °F 33.5 °F 30.6 °F 70% 29.97 in 10.0 mi WNW 9.2 mph - N/A   Overcast
5:35 PM 40.5 °F 33.2 °F 29.8 °F 66% 29.98 in 10.0 mi WNW 12.7 mph - N/A   Overcast
5:55 PM 40.8 °F 34.5 °F 29.5 °F 64% 29.99 in 10.0 mi NW 10.4 mph - N/A   Overcast
6:15 PM 40.1 °F 36.9 °F 29.1 °F 65% 29.98 in 10.0 mi NW 4.6 mph - N/A   Overcast
6:35 PM 39.2 °F 35.9 °F 29.5 °F 68% 29.99 in 10.0 mi WNW 4.6 mph - N/A   Overcast
6:55 PM 38.5 °F 35.0 °F 29.8 °F 71% 30.00 in 10.0 mi WNW 4.6 mph - N/A   Overcast
7:15 PM 39.2 °F 37.0 °F 28.4 °F 65% 29.99 in 10.0 mi NNW 3.5 mph - N/A   Overcast
7:35 PM 38.7 °F 36.3 °F 28.4 °F 67% 29.99 in 10.0 mi WNW 3.5 mph - N/A   Overcast
7:55 PM 38.3 °F 33.9 °F 28.4 °F 68% 30.00 in 10.0 mi WNW 5.8 mph - N/A   Overcast
8:15 PM 38.1 °F - 28.6 °F 69% 30.00 in 10.0 mi Calm Calm - N/A   Mostly Cloudy
8:35 PM 37.9 °F - 29.1 °F 71% 30.00 in 10.0 mi Calm Calm - N/A   Overcast
8:55 PM 38.3 °F - 29.1 °F 70% 30.00 in 10.0 mi Calm Calm - N/A   Overcast
9:15 PM 37.8 °F - 30.4 °F 75% 30.02 in 10.0 mi Calm Calm - N/A   Overcast
9:35 PM 37.4 °F - 30.2 °F 75% 30.01 in 10.0 mi Calm Calm - N/A   Mostly Cloudy
9:55 PM 38.7 °F - 30.0 °F 71% 30.01 in 10.0 mi Calm Calm - N/A   Mostly Cloudy
10:15 PM 37.8 °F - 30.4 °F 75% 30.01 in 10.0 mi Calm Calm - N/A   Mostly Cloudy
10:35 PM 38.7 °F - 29.5 °F 70% 30.00 in 10.0 mi Calm Calm - N/A   Overcast
10:55 PM 38.5 °F - 29.7 °F 71% 30.01 in 10.0 mi Calm Calm - N/A   Overcast
11:15 PM 37.0 °F 34.5 °F 29.5 °F 74% 30.00 in 10.0 mi North 3.5 mph - N/A   Mostly Cloudy
11:35 PM 37.4 °F 34.9 °F 28.6 °F 70% 30.01 in 10.0 mi NW 3.5 mph - N/A   Overcast
11:55 PM 36.3 °F 33.7 °F 28.4 °F 73% 30.00 in 10.0 mi NW 3.5 mph - N/A   Overcast